Location: Casilda
(33.0440°S, 61.1680°W)
Time: 18:48:00
(UTC-03:00)

ISS - Pass Details

Date: 14 October 2018
Orbit: 403 x 408 km, 51.6° (Epoch: 17 October)

Event Time Altitude Azimuth Distance (km) Brightness Sun altitude
Rises 05:33:17 0° 209° (SSW) 2,350 -0.1 -11.4°
Reaches altitude 10° 05:36:24 10° 177° (S) 1,483 -0.7 -10.8°
Maximum altitude 05:37:53 12° 150° (SSE) 1,345 -0.5 -10.5°
Drops below altitude 10° 05:39:21 10° 124° (SE) 1,478 0.4 -10.2°
Sets 05:42:27 0° 92° (E) 2,332 1.8 -9.6°
